This is the latest recevied weather packets stored in our database for station/object IW3HBX-3. If no packets are shown the sender has not sent any weather packets the latest 10 day(s).
| Time | Temp. | Humidity | Pressure | Rain* | Wind** | Luminosity | Snow |
|---|---|---|---|---|---|---|---|
| 1777634129 | 18.33° C | 31% | 1028 hPa | 0 mm | - | 816 W/m² | - |
| 1777633829 | 17.78° C | 31% | 1028 hPa | 0 mm | - | 815 W/m² | - |
| 1777633530 | 19.44° C | 31% | 1028 hPa | 0 mm | - | 819 W/m² | - |
| 1777633230 | 18.89° C | 30% | 1028.2 hPa | 0 mm | - | 817 W/m² | - |
| 1777632930 | 18.89° C | 31% | 1028.2 hPa | 0 mm | - | 814 W/m² | - |
| 1777632330 | 19.44° C | 32% | 1028.4 hPa | 0 mm | - | 820 W/m² | - |
| 1777632031 | 19.44° C | 30% | 1028.4 hPa | 0 mm | - | 817 W/m² | - |
| 1777631731 | 18.89° C | 31% | 1028.4 hPa | 0 mm | - | 814 W/m² | - |
| 1777631431 | 17.78° C | 30% | 1028.5 hPa | 0 mm | - | 812 W/m² | - |
| 1777631131 | 17.78° C | 31% | 1028.5 hPa | 0 mm | - | 808 W/m² | - |
| 1777630532 | 18.33° C | 31% | 1028.6 hPa | 0 mm | - | 792 W/m² | - |
| 1777630232 | 17.78° C | 31% | 1028.7 hPa | 0 mm | - | 781 W/m² | - |
| 1777629932 | 18.33° C | 31% | 1028.6 hPa | 0 mm | - | 778 W/m² | - |
| 1777629633 | 17.78° C | 31% | 1028.7 hPa | 0 mm | - | 766 W/m² | - |
| 1777629333 | 17.78° C | 31% | 1028.6 hPa | 0 mm | - | 760 W/m² | - |
| 1777628733 | 18.33° C | 30% | 1028.7 hPa | 0 mm | - | 734 W/m² | - |
| 1777628434 | 18.89° C | 30% | 1028.8 hPa | 0 mm | - | 731 W/m² | - |
| 1777628134 | 18.89° C | 30% | 1028.7 hPa | 0 mm | - | 724 W/m² | - |
| 1777627834 | 18.89° C | 32% | 1028.8 hPa | 0 mm | - | 720 W/m² | - |
| 1777627534 | 18.33° C | 32% | 1028.8 hPa | 0 mm | - | 713 W/m² | - |
| 1777627235 | 18.33° C | 30% | 1028.8 hPa | 0 mm | - | 704 W/m² | - |
| 1777626935 | 18.89° C | 31% | 1028.8 hPa | 0 mm | - | 694 W/m² | - |
| 1777626635 | 18.89° C | 30% | 1028.9 hPa | 0 mm | - | 687 W/m² | - |
| 1777626335 | 17.78° C | 32% | 1028.9 hPa | 0 mm | - | 678 W/m² | - |
| 1777626036 | 17.78° C | 31% | 1028.9 hPa | 0 mm | - | 672 W/m² | - |
* Rain latest hour (hover to see other rain measurements)
** Current wind speed in m/s (hover to see current wind gust speed)